Погода в Коктобе

Казахстан     51°31′44″N   77°28′08″E
темп.,
°C
ветер,
м/с
пор.,
м/с
влажн.,
%
обл.,
%
осадки,
мм/ч
давл.,
гПа
погр.,
м
17 июня, чт
чт1700:00+20с22514 0.0 101311
03:00+20зсз114817 0.0 101211
06:00+21з33447 0.0 101252
09:00+27зсз343233 0.0 1011729
12:00+30сз242814 0.0 10102719
15:00+32ссз342479 0.0 10093492
18:00+31с44289 0.0 10081529
21:00+25ссв444641 0.0 100843
18 июня, пт
пт1800:00+22св22516 0.1 100812
03:00+22ю33502 0.0 100719
06:00+23ю33501 0.0 100656
09:00+29юз44341 0.0 1005617
12:00+33юз33231 0.0 10033064
15:00+35ю35186 0.0 10013587
18:00+27ссз693696 0.1 999187
21:00+23в2352100 0.4 99926
19 июня, сб
сб1900:00+21ю446580 1.1 100061
03:00+17сз7118716 0.0 1000414
06:00+13зсз81184100 0.3 1003606
09:00+12сз81076100 0.3 1005861
12:00+12сз71070100 1.0 10071166
15:00+12сз101163100 0.1 10081329
18:00+10сз9127078 0.1 10091116
21:00+10сз336561 0.0 101030
20 июня, вс
вс2000:00+9зюз347245 0.1 101053
03:00+8зюз487875 0.2 1011171
06:00+10зюз6116479 0.2 1011426
09:00+15з6945100 0.1 10111261
12:00+17з7937100 0.1 10102371
15:00+19зюз893699 0.1 10092366
18:00+19зюз883332 0.1 10082283
21:00+15ююз475019 0.0 1008101
21 июня, пн
пн2100:00+13ююз595399 0.0 1006162
03:00+14ю61251100 0.0 1002323
06:00+15ююз81361100 0.1 998765
09:00+15зюз9127574 6.0 9961077
12:00+15зсз141476100 6.4 9951340
15:00+15зсз101462100 1.0 10001802
18:00+11зсз71179100 1.4 10031045
21:00+11з8118017 0.6 1005742